sat.trackr.live / text

‹ back to catalog

STARLINK-36781

NORAD 67931 · 2026-036AD

PAYLOAD ACTIVE UNKNOWN

§ Identity

Operator
Country
US
Launch date
2026-02-22
Launch site
AFETR
Launch vehicle
Mass (kg)
RCS (m²)

Purposes: comms

External: N2YO · Heavens-Above · Gunter

§ Orbital elements

Epoch: 2026-09-19T14:49:31.963584Z

Period
94.27 min
Inclination
42.9977°
Eccentricity
0.0001189
Mean motion
15.27585884 rev/d
Perigee alt
482.2 km
Apogee alt
483.8 km
Semi-major
6,861.2 km
B*
3.2487e-4
RAAN
229.8083°
Arg perigee
270.5476°
Mean anomaly
89.5239°
Rev number
3,338

§ Raw data

STARLINK-367811 67931U 26036AD  26262.61773106  .00008690  00000+0  32487-3 0  99912 67931  42.9977 229.8083 0001189 270.5476  89.5239 15.27585884 33384

JSON: /api/v1/satellites/67931 · /tle

For live sub-satellite position, see the globe view (requires WebGL).

§ Visibility from observer

Set your observer location to see the next 7 days of passes ≥ 10°. The values pass through the URL so the page stays shareable.

No JS? Fill the form by hand. The geolocation button needs JavaScript.